Theta_e
291 291 291 290 290 290 290 290 290 290 291 291 291 292 292 293 293 293 294 295 295 297 297 297 297 298 299 299 298 298 298 298 298 297 298 299 300 300 299 299 299 299 302 306 312 318 322 325 327 328 328 329 333 334 331 331 332 334 335 333 331 333 337 339 340 342 342 343 342 341 341 340 339 338 336 335 335 334 332 332 331 330 329 328 327
290 290 290 290 289 289 289 289 290 290 290 290 291 291 292 292 293 293 294 295 296 297 297 298 298 298 298 299 299 299 299 300 299 299 299 299 299 299 299 298 298 299 299 301 304 309 315 321 326 328 328 327 330 333 334 333 333 334 335 334 332 331 334 337 340 341 340 340 341 341 341 340 339 338 336 336 335 334 332 332 331 329 329 328 328
290 289 290 289 289 289 288 289 289 289 289 289 290 290 291 291 291 292 293 294 295 297 297 297 298 298 298 298 298 299 300 300 300 300 300 299 299 299 298 298 298 298 299 300 300 302 306 312 319 325 327 327 327 329 332 334 334 335 335 336 335 332 333 335 338 341 340 338 339 341 340 339 339 338 337 336 335 334 332 331 330 329 328 328 328
289 289 289 289 289 288 288 288 288 288 288 288 289 289 290 291 291 291 292 293 294 296 296 297 297 298 298 298 298 299 299 300 301 301 301 301 300 299 299 299 299 298 298 299 300 300 301 304 309 317 323 326 326 327 329 330 332 334 335 335 334 334 334 334 336 339 340 339 340 341 340 339 338 338 337 337 336 334 332 331 330 329 328 327 328
289 289 289 289 288 288 288 287 287 287 288 288 288 289 290 290 291 292 293 293 294 295 296 296 297 297 297 298 298 298 299 299 300 301 301 302 302 301 301 300 298 298 298 299 299 300 301 301 302 306 314 321 324 326 328 329 329 331 333 334 333 334 335 334 334 338 340 340 341 341 339 339 338 338 337 337 336 334 332 331 330 329 328 327 327
289 289 289 288 288 288 287 287 287 287 287 288 288 288 289 289 290 291 292 293 294 294 295 295 296 296 297 297 297 298 298 299 300 300 301 301 301 302 302 301 300 299 298 298 299 299 300 302 302 302 305 311 317 321 325 328 329 329 330 332 333 334 335 334 333 335 339 340 341 341 340 339 339 337 337 337 336 334 333 331 330 328 328 327 327
289 289 288 288 288 287 287 287 287 287 287 287 287 288 288 289 289 291 292 292 293 293 293 294 294 295 296 296 297 297 298 298 299 300 300 301 301 301 301 301 301 301 300 300 300 300 301 302 303 305 305 305 308 312 319 325 328 328 329 330 331 333 334 335 333 333 337 339 340 341 340 339 339 337 337 337 336 334 333 331 330 328 328 327 327
289 288 288 288 287 287 286 286 286 286 286 286 287 287 287 288 289 290 291 292 292 292 293 293 293 294 294 295 296 297 297 298 298 299 300 300 300 301 301 301 301 301 301 301 301 300 300 300 301 303 305 305 306 306 311 320 325 327 328 329 330 331 333 334 334 333 335 338 340 340 340 340 339 338 337 337 336 334 333 331 330 328 328 327 327
287 287 287 287 287 286 286 286 285 285 285 286 286 287 287 288 289 290 290 291 292 292 293 293 293 293 293 294 295 296 297 297 298 298 298 299 300 300 300 300 300 300 300 301 302 302 301 300 300 300 302 303 305 305 305 312 321 324 327 330 329 329 332 333 333 333 333 335 338 339 340 340 339 338 338 337 336 334 333 331 330 328 328 327 327
286 286 286 286 286 286 285 285 285 285 285 285 286 286 286 287 288 289 290 290 291 292 292 292 293 293 294 294 295 296 296 297 298 298 298 299 299 300 300 300 300 300 300 300 301 303 303 302 302 302 302 302 303 304 303 304 311 315 318 326 330 329 330 332 332 333 332 332 334 338 340 340 339 339 338 337 335 334 333 331 330 329 328 327 327
285 285 285 285 285 285 285 284 284 284 284 285 286 286 286 287 288 289 289 290 290 291 291 292 292 293 294 295 295 296 297 297 298 298 299 299 299 299 300 300 301 301 301 300 299 300 301 303 304 304 304 304 304 306 306 305 305 306 308 315 325 328 329 331 332 332 332 332 332 335 339 340 339 338 337 337 336 334 333 332 330 329 328 328 327
284 284 285 285 285 284 284 284 284 284 285 285 286 286 286 287 288 288 288 289 290 290 291 291 292 293 294 295 296 296 296 297 298 299 299 299 299 300 300 300 301 301 301 301 300 299 299 300 302 304 304 305 305 306 308 309 308 307 305 308 316 325 328 330 332 332 331 333 332 332 336 340 339 339 338 337 336 334 333 332 331 329 328 328 327
285 285 284 284 284 284 284 284 284 284 285 285 285 285 285 286 287 287 288 289 289 290 290 291 293 294 294 295 295 296 297 297 298 299 299 299 299 300 300 300 300 301 301 301 302 302 301 301 301 303 304 305 305 306 307 309 310 309 307 306 311 320 326 328 331 332 330 331 333 331 333 338 339 338 338 337 336 335 333 332 331 329 328 327 326
285 285 284 284 283 284 284 284 284 284 284 285 285 285 285 286 286 287 288 289 289 290 290 291 293 293 293 293 294 295 296 297 298 299 300 300 300 300 300 300 301 301 301 301 302 302 303 303 303 303 304 305 306 307 308 310 313 314 310 307 309 317 324 327 330 332 331 329 331 332 332 336 338 338 338 337 336 335 333 332 331 329 328 327 326
285 284 284 283 283 283 283 284 284 284 284 285 285 285 285 286 286 287 287 288 289 289 290 291 291 291 292 293 293 294 295 297 299 299 299 299 299 299 300 300 301 301 301 301 302 303 304 305 306 306 306 307 308 308 309 310 314 317 317 311 310 317 323 326 328 331 332 330 330 332 332 334 337 338 338 337 336 335 333 332 331 329 328 327 326
284 284 283 283 283 283 283 283 284 284 284 285 285 285 285 285 286 286 287 287 288 289 289 289 290 291 291 292 293 293 295 296 297 296 296 297 297 298 299 300 300 300 300 301 302 303 304 304 305 307 307 309 310 311 311 311 312 316 321 319 314 317 323 325 326 330 332 332 330 331 332 334 335 337 338 337 336 335 334 333 331 330 328 327 326
284 284 283 283 283 282 282 283 283 283 284 284 284 285 285 285 285 285 286 287 287 288 288 289 289 290 291 291 292 292 293 294 294 294 296 296 297 298 298 299 299 299 300 300 301 301 301 301 302 303 304 305 307 310 313 314 313 314 319 323 320 319 323 325 326 329 331 332 332 330 331 334 335 336 338 337 336 335 334 333 331 330 328 326 325
284 284 283 283 283 283 282 282 283 283 283 283 284 284 284 285 285 285 285 286 286 287 288 288 289 289 289 290 290 291 292 293 293 293 295 295 296 296 297 298 298 299 299 299 300 300 300 301 301 302 303 303 304 307 310 312 315 316 317 322 324 322 323 324 326 328 329 331 333 332 331 332 333 336 337 337 336 335 334 333 331 329 328 326 325
284 284 283 283 283 283 281 281 282 282 283 283 283 284 284 284 284 284 284 285 285 286 287 288 288 288 288 288 289 290 291 291 292 292 293 294 295 296 296 297 297 297 298 299 299 299 300 300 300 301 301 303 304 304 305 305 310 316 318 319 321 322 324 324 325 327 328 330 332 332 332 331 332 335 337 336 336 336 334 333 331 329 328 326 325
284 284 283 283 282 281 281 281 281 282 282 282 283 283 283 284 283 283 284 284 285 285 286 287 288 288 288 288 288 289 290 290 291 292 292 293 294 294 295 295 296 296 297 298 298 298 299 299 299 300 301 301 302 303 303 303 304 309 314 318 320 321 323 323 324 326 328 329 331 332 332 331 331 334 336 335 335 336 334 333 331 329 328 326 325
283 283 282 282 281 280 280 280 281 281 281 282 283 283 283 283 283 283 284 284 284 284 285 286 286 287 287 288 288 288 289 290 290 291 292 292 292 292 293 294 295 295 296 297 297 298 298 299 299 300 300 301 301 302 304 304 303 304 307 311 316 320 322 322 323 325 327 329 329 330 330 332 331 333 336 335 334 335 334 333 331 329 328 326 325
283 282 282 281 280 280 280 280 281 281 281 281 282 282 283 283 283 283 283 283 284 284 284 285 285 286 286 287 287 287 288 288 289 290 290 291 291 291 292 293 293 294 295 296 297 297 298 298 298 299 299 300 301 302 303 304 305 305 304 304 309 315 318 321 323 324 326 327 328 328 328 330 331 331 333 335 334 334 334 333 331 329 328 326 325
282 282 281 280 280 280 280 280 280 280 280 281 281 282 282 282 282 282 282 283 283 283 283 284 284 285 285 286 286 286 287 287 288 288 288 289 290 290 291 292 293 293 294 295 296 296 297 297 297 298 299 299 300 300 302 303 304 305 305 304 305 309 312 315 320 324 326 327 327 327 327 327 328 329 332 335 335 335 335 333 331 329 328 326 325
281 281 280 280 279 279 279 280 280 280 280 280 281 281 281 282 282 282 282 282 282 282 282 283 283 284 284 285 285 285 285 286 286 286 287 287 288 289 290 291 292 292 293 294 295 295 296 297 297 297 298 298 299 300 300 301 302 302 303 304 304 306 308 309 312 317 323 327 327 326 326 326 327 329 333 335 335 335 335 333 331 330 328 327 326
281 280 280 279 279 279 279 279 279 279 279 280 280 280 281 281 281 281 281 281 281 282 282 282 282 283 283 283 284 284 284 284 284 284 285 286 288 288 289 290 290 291 292 293 294 295 296 297 297 297 297 298 298 299 299 299 300 300 301 302 302 303 305 307 307 309 314 321 326 327 326 326 328 329 331 335 336 336 335 333 331 330 328 327 326
280 280 279 279 278 278 278 278 278 278 279 279 279 280 280 280 281 281 281 281 281 281 281 281 281 281 282 282 282 282 282 282 283 283 284 285 287 287 287 288 289 290 291 292 293 295 296 297 297 297 297 297 298 298 298 298 299 300 300 301 302 302 303 305 306 306 307 312 320 326 327 326 327 329 330 333 336 337 336 334 332 330 329 328 326
279 279 279 278 278 278 278 278 278 278 278 279 279 280 280 280 280 280 280 280 280 280 280 280 280 280 281 281 281 281 281 281 282 282 283 284 285 285 286 286 287 288 289 290 292 293 295 296 297 297 297 297 297 297 298 298 299 300 300 301 302 303 303 302 303 304 305 307 313 321 326 326 327 329 330 331 334 336 335 334 332 330 328 327 326
278 278 278 277 277 277 278 278 278 278 278 279 279 279 279 279 280 280 280 280 280 280 280 280 280 280 280 280 280 280 281 281 281 282 283 283 284 284 284 285 286 287 288 289 290 292 293 295 296 297 296 297 297 297 297 298 298 299 301 303 304 306 306 305 303 303 305 307 311 317 324 327 327 330 331 331 332 334 334 333 331 329 328 326 325
277 277 277 277 277 277 277 277 278 278 278 278 278 278 279 279 279 279 280 280 279 279 279 279 279 279 279 280 280 280 280 280 281 281 282 282 282 283 283 284 285 286 287 288 290 291 292 294 296 296 296 297 297 297 298 298 299 300 302 304 306 307 309 309 309 307 307 309 311 316 323 327 327 330 331 332 332 332 332 332 331 329 327 326 325
277 277 277 277 277 276 277 277 277 277 277 277 278 278 278 278 279 279 279 279 279 279 279 279 279 279 279 279 279 279 280 280 280 280 280 280 281 281 282 283 284 285 286 288 289 291 292 294 295 295 296 297 297 297 298 299 301 301 302 304 305 307 308 309 310 309 310 313 314 316 323 326 327 329 330 331 330 330 331 331 330 328 327 326 325
276 276 276 276 276 276 276 276 276 276 276 277 277 277 277 278 278 278 278 279 279 279 279 278 278 279 279 279 279 279 279 279 279 279 279 280 280 281 282 283 283 284 286 287 289 290 291 292 293 294 295 296 296 297 298 299 301 301 300 300 301 304 307 308 307 307 309 314 316 318 322 324 327 329 330 330 330 330 331 330 328 327 326 325 325
276 275 275 275 275 275 275 275 275 276 276 276 276 276 276 277 277 277 278 278 278 278 278 278 278 278 278 278 278 278 278 279 279 279 279 280 280 281 282 282 283 284 285 286 287 288 289 290 291 293 294 295 295 296 297 298 299 299 299 298 298 300 303 306 307 307 307 311 316 320 322 323 326 328 329 329 329 330 331 329 328 326 325 325 324
275 275 275 275 275 274 274 274 275 275 275 275 275 275 276 276 276 276 277 277 277 277 277 277 277 277 278 278 278 278 278 278 278 278 278 279 280 280 281 281 281 282 283 284 286 286 287 288 290 291 293 294 295 295 295 297 297 297 298 299 300 300 301 303 305 307 308 310 315 319 321 322 325 328 329 328 328 330 330 328 326 325 325 324 324
275 274 274 274 274 274 274 274 274 274 274 274 274 274 274 274 274 274 275 275 275 275 275 275 276 276 277 277 277 276 276 276 276 276 277 277 278 279 280 280 280 281 282 282 283 283 284 286 288 289 291 293 294 295 296 296 297 298 298 300 302 302 302 302 302 303 305 307 312 317 320 321 324 327 329 328 328 328 329 327 326 325 324 324 324
274 274 274 273 273 273 273 273 273 273 273 273 273 273 273 272 272 272 272 273 273 273 273 273 274 274 275 275 275 275 275 275 275 275 275 276 277 278 278 279 279 280 280 280 280 280 281 283 285 286 288 291 294 295 296 296 297 299 300 301 302 303 302 302 302 302 303 304 308 313 318 320 322 326 328 328 326 326 327 327 325 325 324 323 324
273 273 273 273 272 272 272 272 272 272 272 271 271 271 271 270 270 270 270 271 271 271 271 271 272 272 272 272 272 273 273 274 274 274 274 275 276 277 277 278 278 278 278 278 279 280 281 282 283 285 287 290 293 294 295 296 297 300 300 300 301 302 302 302 302 303 303 304 305 308 314 319 321 323 327 328 326 325 326 326 325 325 324 323 324
273 273 272 272 271 271 271 270 270 270 270 270 270 269 269 269 269 269 269 269 269 270 270 270 270 270 270 270 271 271 272 272 273 273 273 274 275 276 277 277 277 277 277 277 278 279 280 282 283 285 287 290 292 294 295 296 297 299 300 300 301 301 302 302 302 303 303 303 304 305 309 315 320 322 326 328 327 326 326 325 324 324 324 324 324
273 272 271 271 270 270 269 269 269 269 269 269 269 268 268 268 268 268 268 268 268 269 269 269 269 269 269 270 270 270 271 271 272 272 273 274 274 275 276 276 277 277 277 277 277 278 280 282 284 286 288 290 292 294 296 296 297 298 299 300 301 301 302 302 302 304 304 304 305 305 306 312 318 321 323 326 328 327 326 325 324 323 323 323 323
273 272 271 270 270 269 269 268 268 268 268 268 268 268 268 268 268 268 268 268 268 268 269 269 269 269 269 270 270 270 271 271 272 272 273 273 274 275 275 276 276 276 276 276 277 278 280 282 284 286 288 290 292 295 296 297 297 298 299 300 301 301 302 302 302 303 305 305 305 306 307 311 317 321 322 325 328 328 326 325 324 323 323 322 322
273 272 271 270 269 268 268 267 267 267 267 267 268 268 268 268 268 268 268 268 268 269 269 269 269 269 270 270 270 271 271 272 272 272 273 273 274 274 275 275 276 276 276 276 277 278 280 281 283 286 289 291 294 295 296 297 298 299 299 299 300 301 301 301 302 303 304 306 307 308 310 312 316 320 322 324 327 327 326 325 324 323 322 322 322
273 272 271 269 268 267 267 267 267 267 267 267 268 268 268 269 269 269 269 270 270 270 270 270 270 271 271 271 271 271 271 272 273 273 273 274 274 275 275 275 275 276 276 276 277 278 280 281 283 286 288 291 294 295 295 297 298 298 298 298 299 300 300 300 300 300 302 304 307 310 313 314 316 319 321 322 325 326 325 324 323 323 322 322 322
273 272 270 268 267 267 267 267 267 267 267 268 268 268 269 270 270 271 271 271 271 271 271 271 271 272 272 272 272 272 273 273 273 274 274 275 275 275 276 276 276 276 277 277 277 278 279 281 283 285 286 289 292 294 295 296 298 297 297 298 298 299 299 299 300 300 300 303 308 311 314 315 316 318 320 321 322 324 324 322 322 322 322 322 322
272 271 269 267 267 267 267 267 267 268 268 268 268 269 270 271 271 271 271 271 271 271 271 271 271 272 272 272 273 273 274 274 274 274 275 275 276 276 277 277 277 278 278 278 278 278 280 281 282 284 285 286 289 293 294 295 296 296 296 296 296 296 297 298 299 299 300 303 309 313 314 315 317 319 320 321 321 321 321 321 321 321 322 321 321
271 270 268 267 267 267 267 267 267 267 267 268 268 269 270 271 271 271 272 272 272 272 272 272 272 272 272 273 273 273 274 275 275 275 275 275 276 277 277 278 278 278 279 279 279 279 280 281 282 283 284 285 287 291 293 294 295 295 295 294 294 294 294 295 296 297 298 299 304 311 315 316 317 319 320 321 321 321 321 321 320 320 321 321 321
270 269 267 267 267 267 267 267 267 267 267 268 269 270 270 271 272 272 272 272 272 272 272 272 272 272 273 273 273 274 274 275 276 276 276 276 276 277 277 277 278 278 279 279 280 280 280 281 282 282 284 285 286 288 291 293 294 294 294 293 293 293 292 293 293 294 294 295 296 304 313 316 317 319 320 321 321 321 321 321 320 320 320 321 321
268 268 267 266 266 266 266 266 267 267 267 267 269 270 270 271 272 272 272 272 272 272 272 272 272 272 273 273 274 274 275 275 276 276 277 277 277 277 277 278 278 278 278 279 279 279 280 280 281 282 282 284 285 286 289 292 293 293 293 293 293 292 292 292 292 292 293 294 293 298 308 315 318 319 320 321 321 321 321 320 320 320 320 320 320
267 267 267 266 266 266 266 266 266 266 267 268 269 270 270 271 272 272 272 272 272 272 272 272 272 272 273 273 273 274 274 275 275 276 277 278 278 278 278 278 278 278 278 278 278 278 279 279 280 282 282 283 285 286 287 290 292 292 293 292 292 292 291 291 292 292 293 294 294 296 303 312 318 319 319 321 321 320 320 320 319 319 320 320 320
267 266 266 266 266 266 266 266 266 266 267 268 269 269 270 271 272 272 272 272 272 273 273 273 273 272 272 273 273 273 274 274 275 276 277 278 279 279 279 279 279 278 278 278 278 279 279 279 280 281 282 284 285 286 287 290 291 292 292 292 292 292 291 292 292 293 293 294 295 298 302 310 317 319 319 319 320 319 319 318 318 319 319 319 319
266 266 265 265 266 266 266 266 266 266 267 267 268 269 270 271 272 272 272 273 273 273 273 273 273 273 272 273 273 273 274 274 275 276 277 278 278 279 279 280 279 279 279 279 279 279 279 280 281 282 282 284 286 287 288 289 290 291 292 293 292 292 292 292 292 293 294 294 295 297 302 310 316 318 317 317 318 318 317 316 316 317 318 318 319
266 265 265 265 265 265 266 266 266 266 266 267 268 269 270 271 272 273 273 273 273 273 273 273 273 273 273 273 273 273 273 274 274 275 276 277 278 279 280 280 280 280 280 280 280 280 280 280 281 282 283 285 286 288 289 289 290 291 292 293 293 292 292 292 292 293 293 294 294 296 301 309 315 316 315 315 316 316 315 315 316 316 317 318 318
265 265 265 265 265 266 266 266 266 266 267 267 268 269 270 271 273 273 273 273 273 273 273 273 273 273 273 273 273 273 274 274 275 276 277 277 278 279 279 280 280 281 281 281 280 280 280 281 283 284 285 286 288 289 290 290 291 292 292 293 292 291 291 291 292 293 293 294 295 297 302 309 313 313 315 315 314 314 314 314 315 316 316 317 317
Wind_Speed
9 9 10 11 13 14 15 16 16 17 18 17 17 16 15 14 14 15 15 16 16 14 14 15 15 14 14 16 17 18 19 20 22 23 24 24 26 28 30 31 32 33 35 36 36 36 36 36 36 35 36 36 35 36 38 38 37 37 37 37 36 36 39 41 43 45 47 48 48 47 48 50 50 47 45 43 43 42 41 40 39 38 36 35 34
8 8 9 11 12 14 15 15 16 17 18 17 17 17 16 14 14 14 13 13 13 13 14 14 14 14 14 15 17 17 17 18 20 21 23 24 26 27 29 31 33 34 34 36 37 38 37 36 36 36 37 38 37 36 37 37 37 38 38 37 38 38 38 40 42 46 48 49 49 48 49 51 51 50 47 45 45 44 43 42 41 39 38 36 34
7 9 10 12 13 14 15 15 15 16 17 17 18 18 17 16 16 17 16 14 13 13 13 13 14 14 14 16 17 17 17 18 19 20 22 24 26 28 30 31 32 33 34 35 36 37 39 39 39 38 38 39 40 39 39 38 37 38 38 37 38 38 38 39 41 45 48 50 50 50 52 53 53 51 49 48 48 47 46 44 42 40 40 38 35
8 10 11 12 13 14 15 15 16 17 18 18 19 19 17 16 17 18 17 16 15 13 13 14 14 14 15 16 17 17 18 18 19 20 21 22 24 27 29 31 32 33 34 35 36 36 38 40 41 42 41 41 41 41 41 42 41 39 38 37 37 39 39 38 40 44 49 51 50 52 54 56 55 53 51 50 50 49 47 46 44 42 41 40 37
8 10 11 12 13 13 14 15 16 17 18 19 20 18 16 16 17 16 15 15 14 13 14 14 14 15 15 16 17 18 19 19 19 20 21 22 23 24 25 29 32 34 35 35 36 37 38 38 40 42 43 44 43 41 41 43 44 42 41 39 37 38 39 39 39 43 49 51 50 53 56 57 56 54 52 51 51 51 49 47 46 43 42 41 39
9 10 10 11 12 13 14 15 16 17 18 18 19 17 16 17 17 15 14 14 14 14 14 15 15 15 16 16 17 18 19 20 20 21 21 22 23 24 25 27 31 33 35 36 36 37 38 38 38 40 42 45 46 44 41 42 44 45 44 43 39 38 39 39 38 40 46 51 51 53 55 57 57 56 54 53 52 51 50 49 47 45 44 42 41
10 10 10 11 12 12 13 14 16 17 17 17 18 16 15 16 15 14 14 14 14 15 15 16 16 16 16 17 18 19 20 20 21 22 22 23 23 24 26 27 28 30 31 33 35 35 36 37 37 37 39 42 44 47 45 42 43 44 46 46 44 40 39 39 37 39 45 50 52 54 56 57 57 57 56 55 54 51 50 49 48 47 45 44 43
10 10 10 11 12 12 13 14 16 17 16 16 16 14 13 14 13 11 13 14 14 15 16 16 16 17 17 18 19 20 20 21 22 22 23 23 24 25 26 28 28 29 30 30 33 36 36 37 38 39 39 40 41 44 47 45 43 44 45 46 47 44 41 40 39 40 43 48 53 56 56 58 58 57 57 58 56 54 52 50 49 48 47 46 45
9 10 11 11 12 13 14 15 16 15 15 15 14 13 12 12 11 10 12 13 14 15 15 16 16 18 19 20 20 20 21 22 23 24 24 24 25 25 25 26 28 30 30 30 30 32 34 36 38 40 40 41 42 43 46 47 45 45 45 44 46 47 44 42 42 41 42 45 51 56 58 59 60 59 58 58 58 56 54 53 52 51 50 48 47
10 10 11 12 13 14 15 16 15 14 13 14 13 14 13 12 11 12 12 13 14 15 15 16 17 19 20 21 21 22 22 23 24 24 24 25 25 26 25 24 25 27 29 29 29 29 30 32 33 36 39 41 42 43 45 47 48 48 48 46 45 46 45 44 44 43 44 44 47 54 59 60 60 60 60 59 59 58 57 56 54 53 52 51 50
11 11 12 12 13 14 15 16 15 13 12 13 13 12 13 12 12 12 12 13 14 15 16 17 18 20 21 22 22 23 24 24 25 25 25 26 25 24 23 23 24 25 26 27 28 29 30 30 29 30 34 36 38 41 43 45 47 49 51 50 48 46 46 45 46 45 45 46 46 50 57 60 60 61 61 60 60 60 60 59 57 56 54 54 53
11 11 12 13 14 14 15 16 14 12 11 12 12 12 12 12 11 12 13 13 13 13 14 16 20 21 22 22 22 23 26 26 26 25 26 25 23 22 22 22 23 23 24 24 25 27 29 31 31 30 31 33 36 39 42 44 46 48 50 52 51 48 47 45 46 48 48 47 47 50 56 60 62 64 64 63 62 62 62 61 59 58 57 55 54
11 12 13 14 14 15 15 15 13 12 12 12 14 15 14 12 11 11 12 12 12 11 12 15 18 18 18 21 23 23 23 24 26 27 26 24 21 20 20 20 21 20 21 22 23 25 26 28 30 30 31 32 33 35 38 42 45 47 48 51 52 50 48 46 45 49 50 49 49 51 55 61 66 68 67 66 65 64 64 63 60 60 59 57 55
12 13 13 14 14 14 14 14 14 13 13 13 15 15 13 11 11 11 10 11 12 11 10 12 14 15 16 17 18 18 17 18 21 21 18 17 17 18 20 20 19 19 19 21 22 23 24 25 27 28 30 32 32 32 34 37 41 45 47 50 52 51 49 46 46 48 50 50 49 51 54 59 65 69 69 68 67 66 66 64 63 63 61 59 58
12 13 14 14 14 14 14 14 15 14 13 13 13 14 13 11 10 10 11 12 12 11 9 9 13 16 15 12 11 14 13 9 10 12 13 17 21 22 22 20 19 19 20 20 21 21 22 23 24 26 27 29 30 32 33 34 37 41 44 47 50 51 50 47 46 46 48 49 49 50 53 55 61 68 69 68 69 69 69 68 67 66 63 62 61
13 14 14 15 15 14 14 14 15 14 13 12 13 13 13 12 11 10 11 12 12 12 10 9 11 12 10 9 8 10 10 7 11 16 17 18 21 20 19 20 20 20 19 20 21 22 23 24 25 27 28 28 29 31 32 34 37 39 41 44 48 50 50 48 47 46 46 48 49 50 51 51 56 65 68 69 73 73 72 71 70 69 68 66 64
14 14 15 15 15 15 15 15 15 15 14 13 13 13 13 13 12 11 11 12 14 14 13 11 11 9 8 9 8 7 9 12 16 17 15 14 17 18 20 21 22 20 21 23 24 25 26 27 27 27 28 30 31 31 32 33 35 38 39 41 44 49 51 49 47 47 47 48 48 50 52 52 54 62 69 73 76 77 76 75 72 71 70 68 66
15 15 16 16 16 16 15 16 15 15 14 14 14 13 13 12 12 11 11 11 13 15 15 12 11 12 12 12 12 12 13 15 13 12 16 18 18 20 21 20 21 23 24 25 25 25 26 25 26 28 29 31 33 32 34 35 35 35 37 38 40 44 49 51 48 47 48 48 48 49 51 53 54 59 70 77 78 77 76 74 74 74 70 67 68
16 16 16 16 17 16 16 16 16 15 15 15 16 14 13 13 13 12 12 12 12 14 16 14 12 12 13 15 17 19 20 17 12 10 15 17 16 18 20 21 22 25 27 28 27 27 28 28 29 31 32 32 33 33 35 40 41 39 38 38 41 43 45 49 50 49 48 48 49 49 51 53 52 55 63 75 81 79 76 74 75 75 70 67 68
16 17 17 17 16 16 15 15 15 15 16 16 16 15 14 14 14 13 13 13 13 14 15 14 14 13 12 13 16 18 20 20 19 15 12 14 16 18 19 21 23 25 26 28 30 30 30 31 31 31 32 32 32 33 35 39 44 46 44 41 41 44 45 48 50 50 50 49 50 49 50 51 51 50 50 61 76 80 76 75 77 76 72 69 67
17 17 17 16 15 15 15 16 16 16 16 16 14 15 15 15 15 14 14 14 14 14 16 16 15 15 14 14 15 16 18 19 21 20 15 13 15 15 16 18 21 25 26 26 29 30 30 31 32 32 32 32 33 33 33 34 36 43 49 48 44 42 45 49 52 52 50 51 51 50 50 50 49 48 45 50 67 78 77 77 80 80 77 74 71
18 18 17 16 15 15 15 16 17 17 17 16 14 15 15 15 15 15 15 16 15 15 17 17 17 17 16 16 16 16 14 14 15 17 16 14 14 15 17 16 16 20 26 27 28 29 30 31 32 34 34 34 35 34 34 34 33 35 43 51 52 47 45 46 50 53 53 51 52 52 52 50 49 49 47 47 62 77 79 80 84 84 81 79 75
18 18 17 17 16 17 17 18 18 19 18 16 15 15 15 15 15 15 16 17 17 17 19 20 20 20 19 19 21 19 16 14 14 15 14 12 13 13 16 20 20 21 25 28 30 31 32 33 34 35 35 36 36 35 35 37 35 34 38 43 48 51 49 47 45 49 53 53 52 52 52 51 49 48 48 51 65 79 79 80 83 82 79 77 75
16 17 16 17 18 18 18 19 19 18 18 16 15 15 15 16 16 16 16 17 17 18 20 21 21 22 22 22 23 23 23 21 19 19 18 16 16 12 13 20 21 23 27 27 29 33 33 34 35 35 36 37 36 35 37 39 38 37 40 41 45 49 51 50 47 46 48 51 53 53 51 50 50 49 49 53 67 77 77 80 83 81 79 77 74
15 15 16 17 18 18 18 19 19 18 18 18 17 16 17 17 17 17 17 17 18 19 21 22 22 23 23 23 24 25 26 25 23 23 22 22 20 14 15 21 18 20 28 28 27 30 33 34 35 35 37 37 36 36 37 39 40 40 42 43 45 48 51 51 50 48 48 49 51 53 52 49 51 52 51 54 64 73 77 81 84 83 84 83 77
16 17 17 18 18 18 19 19 20 19 18 18 18 18 18 18 18 19 19 19 19 21 22 23 24 25 25 25 26 27 27 27 25 25 24 23 23 18 15 19 19 18 26 31 29 26 27 31 34 35 36 37 37 37 37 39 41 42 44 45 46 48 51 52 50 49 50 51 51 53 54 52 52 53 53 55 63 74 80 81 80 78 80 84 80
17 18 18 19 19 19 19 19 19 18 17 17 18 18 18 19 20 20 20 20 20 22 23 24 25 26 27 27 28 28 28 27 26 26 26 25 27 25 19 14 15 15 18 24 27 26 28 30 32 35 37 38 39 38 36 37 40 43 44 45 45 46 49 52 52 50 50 53 53 53 56 56 54 54 54 55 61 69 78 81 78 75 75 77 75
16 17 17 17 18 18 18 18 17 16 17 17 18 19 19 19 20 21 21 20 20 22 23 24 26 27 28 29 30 30 29 28 27 27 28 28 28 30 26 18 13 12 13 16 17 21 29 30 28 34 38 39 40 40 38 39 42 43 43 41 41 41 43 46 50 50 49 52 54 54 57 59 56 53 54 56 59 62 71 78 78 75 76 75 71
15 16 17 16 16 16 16 16 15 16 16 17 18 19 19 20 21 22 22 21 22 23 23 24 26 26 28 29 30 32 30 29 29 29 29 31 31 31 31 27 20 12 11 15 14 14 22 26 24 27 33 37 38 37 36 37 40 40 38 38 40 40 39 40 43 45 46 50 53 54 58 62 57 53 53 56 58 60 67 78 83 82 80 78 74
15 15 15 14 14 14 14 14 15 15 16 17 17 18 19 21 22 23 23 22 24 24 24 25 26 26 28 30 31 32 31 30 31 32 32 32 32 32 32 32 30 20 13 14 14 13 19 24 26 26 30 34 34 32 32 34 36 38 38 38 39 40 40 40 41 41 43 47 51 53 57 61 59 55 53 54 57 60 64 72 79 83 83 79 75
13 12 12 12 12 12 13 14 14 14 15 16 17 18 19 21 22 23 22 22 24 25 25 25 26 26 29 31 31 31 31 32 32 32 33 33 33 33 32 30 31 29 22 15 13 16 21 24 26 29 31 33 34 34 34 33 34 37 39 40 41 41 40 41 41 41 42 44 48 53 55 56 57 55 54 54 57 61 62 63 66 70 75 75 73
12 11 12 12 12 12 13 13 13 13 14 15 16 16 18 20 22 23 23 23 25 27 26 26 26 27 30 31 31 31 30 31 34 32 31 33 32 31 30 27 26 28 27 19 12 17 27 31 32 33 33 36 40 41 39 38 37 35 37 40 42 42 39 37 37 38 41 44 46 51 55 56 56 55 54 54 58 63 65 66 67 66 66 68 69
12 12 13 12 12 13 12 12 12 14 15 15 16 16 17 19 21 23 24 24 26 27 27 28 28 29 31 31 30 30 29 31 35 34 32 33 32 31 30 29 29 31 29 23 14 14 25 33 33 32 33 35 39 42 41 41 40 35 33 35 39 43 41 37 35 35 37 39 41 47 52 53 56 57 55 56 63 69 72 72 72 71 69 66 65
11 12 13 12 12 12 11 12 13 14 15 16 17 17 17 19 21 22 22 23 25 27 28 30 30 29 29 29 29 30 30 33 35 35 34 34 33 33 31 27 27 29 26 22 17 13 17 25 29 31 34 35 35 37 40 41 38 34 31 31 35 39 39 35 36 38 38 37 36 41 48 49 53 58 57 60 67 74 77 78 76 75 75 71 67
11 11 12 12 11 11 11 12 13 14 15 15 16 16 16 19 21 22 22 23 25 28 29 30 30 30 29 30 31 31 31 33 35 34 34 35 35 35 33 28 26 28 28 27 24 18 16 23 31 35 35 35 34 34 38 40 35 28 28 30 32 35 33 31 32 36 39 39 35 35 42 48 51 56 58 62 68 71 75 80 80 77 76 75 72
11 11 11 12 12 12 13 13 13 14 15 15 15 16 16 18 20 22 22 23 25 27 28 30 30 30 30 32 33 32 32 33 34 33 33 34 34 33 32 30 29 30 31 31 31 28 24 22 29 37 36 33 34 37 40 40 33 26 26 29 31 31 30 29 31 34 37 39 36 33 36 45 51 55 59 64 68 71 74 77 79 79 78 77 74
12 12 13 14 13 13 13 13 14 14 15 16 16 17 17 18 20 22 22 23 25 26 27 29 29 29 30 32 32 31 31 33 34 32 32 33 33 33 32 30 29 30 30 30 32 35 33 26 27 34 35 31 34 41 42 38 34 28 25 25 28 30 29 28 30 33 35 37 37 34 34 41 51 56 60 65 68 72 74 75 76 76 77 78 76
13 14 15 15 14 13 14 14 14 15 15 16 17 17 18 19 20 21 22 23 25 26 28 29 29 30 30 31 31 31 31 32 33 32 32 32 32 31 31 30 29 30 30 32 33 35 36 33 30 31 31 32 34 37 38 35 31 25 19 19 24 27 27 27 29 31 32 33 35 35 34 39 51 56 59 64 67 70 75 76 76 75 75 77 77
13 14 15 16 15 14 14 15 15 15 15 15 17 18 18 20 21 22 23 24 26 27 29 30 31 32 33 33 32 31 31 32 33 33 32 32 32 32 31 30 30 30 31 32 33 34 33 31 29 27 29 33 34 32 32 30 23 17 14 15 18 21 23 24 26 28 28 29 32 34 35 40 50 56 56 61 67 70 74 77 77 77 76 75 76
13 14 15 15 15 14 14 15 15 15 15 16 16 17 18 19 20 22 23 25 27 28 29 30 32 33 34 35 35 34 34 34 34 34 33 32 31 30 31 30 30 30 30 30 29 30 30 27 26 26 27 29 27 23 22 19 12 8 9 12 15 17 18 20 23 24 23 24 28 32 35 40 48 54 54 58 66 70 73 76 78 78 78 76 74
12 14 14 14 14 14 14 14 14 14 15 15 15 16 17 19 20 22 24 24 26 27 28 29 30 31 31 33 34 35 36 37 37 37 37 36 34 32 31 30 30 30 29 29 28 28 27 22 20 22 20 19 18 15 14 11 5 3 7 12 14 17 19 21 23 24 22 23 27 30 34 39 45 49 52 55 62 71 74 76 77 78 78 78 76
12 13 13 13 12 13 13 14 14 14 14 16 16 17 20 22 24 25 26 27 26 28 30 32 33 33 33 33 33 35 37 39 40 40 40 40 39 38 37 34 32 31 28 28 27 27 24 18 16 18 14 12 15 15 11 8 4 4 7 9 11 16 18 16 18 22 21 22 26 29 32 38 42 44 48 52 57 68 73 74 77 79 79 80 78
11 12 12 11 11 12 13 13 14 15 16 17 18 20 23 24 26 27 28 29 27 27 30 33 35 35 35 35 35 35 36 36 37 38 39 41 41 41 42 41 40 37 34 30 29 29 27 21 20 20 13 11 19 22 15 10 8 6 6 6 8 12 11 9 11 15 16 18 23 26 29 37 42 41 45 50 53 59 65 69 76 81 81 81 80
10 10 10 10 11 12 12 14 16 16 18 20 20 22 24 25 26 27 29 29 27 27 29 33 35 35 35 35 35 34 35 34 34 35 36 38 39 40 41 41 42 43 41 39 35 32 30 25 23 23 20 17 22 26 22 15 11 9 6 6 7 9 8 7 7 12 19 24 25 22 22 33 43 41 42 48 52 56 62 68 76 81 81 81 82
8 9 10 10 11 12 12 14 16 17 20 22 22 23 25 26 27 28 29 28 27 28 31 33 34 35 34 35 35 34 34 34 34 35 35 35 36 37 38 39 40 41 42 43 42 40 38 33 28 29 30 26 24 27 26 18 11 11 9 7 9 11 10 9 10 20 30 32 27 21 16 28 44 43 40 48 54 57 64 71 77 81 82 82 82
7 9 10 10 11 13 14 15 17 19 22 23 23 25 26 27 28 28 28 27 26 29 32 33 33 34 34 35 35 35 34 33 32 33 35 36 36 36 36 36 37 38 38 40 42 42 42 41 37 36 38 36 32 32 32 24 16 14 11 9 11 14 15 17 21 28 33 31 25 18 13 21 41 42 38 48 55 58 64 72 80 83 82 81 80
7 8 10 11 13 15 17 18 19 21 24 24 24 26 27 27 29 28 26 25 25 28 31 32 33 34 34 35 36 36 36 35 34 33 34 34 33 33 34 33 34 37 37 38 39 39 39 40 39 38 39 41 40 37 36 32 25 21 17 14 16 18 19 21 23 25 28 28 23 14 10 17 38 39 35 47 56 56 62 72 80 84 83 81 80
8 9 10 12 14 16 19 20 21 24 27 25 24 26 27 28 29 26 23 23 25 27 29 32 33 35 35 34 35 36 36 36 35 35 35 35 34 33 33 31 31 33 36 37 39 40 41 40 40 40 40 41 42 40 38 36 32 30 24 18 18 18 14 12 13 16 21 27 25 15 11 16 33 37 32 44 53 50 56 68 77 82 82 80 79
8 10 11 13 15 17 20 22 23 25 26 25 25 26 27 28 29 25 23 25 27 28 30 32 33 35 35 34 35 36 36 36 36 36 36 36 35 35 34 32 31 32 33 35 38 41 43 42 43 44 45 46 46 43 43 42 40 36 26 16 14 13 8 6 7 10 15 25 31 24 17 15 27 35 30 38 50 49 50 60 70 77 78 76 76
9 11 12 14 16 18 20 24 24 23 25 25 26 27 27 29 28 26 25 27 29 30 31 33 34 34 35 36 36 36 37 37 37 37 37 36 36 36 35 33 32 31 31 32 34 37 37 37 39 43 46 48 47 47 47 46 43 38 27 18 16 11 6 5 6 8 12 23 32 28 18 15 22 33 31 28 35 44 50 56 63 69 71 70 70
9 11 12 14 18 21 22 24 23 21 23 25 25 26 28 29 29 27 26 27 27 28 30 32 34 34 34 36 36 36 37 38 38 38 37 37 36 34 32 30 28 27 29 30 31 31 31 31 34 37 39 38 38 41 46 45 41 37 31 26 23 17 10 6 6 7 7 14 26 27 17 15 17 26 32 21 13 23 42 52 55 59 63 64 64
Wind_Direction
3 3 1 357 354 354 354 352 352 352 353 353 353 353 352 348 345 344 342 338 334 327 321 321 318 313 307 305 308 310 308 306 305 303 300 295 291 288 286 284 282 279 275 271 268 266 265 267 268 266 262 260 261 263 262 262 261 261 261 261 261 259 258 252 243 237 231 226 223 220 218 214 210 208 204 201 198 196 196 195 195 193 192 191 188
1 0 358 353 352 351 350 350 350 350 351 352 350 351 350 345 344 344 339 334 328 320 317 313 308 307 303 300 301 299 296 296 297 298 297 297 296 293 291 289 286 283 280 275 272 269 265 263 263 264 264 262 259 260 261 260 261 262 261 260 260 259 257 254 248 242 232 225 222 219 217 214 210 208 206 203 200 199 197 197 197 195 192 191 190
354 355 353 349 348 347 346 348 348 349 349 349 348 348 347 343 343 343 341 334 324 316 313 308 304 303 299 299 300 296 291 289 288 288 290 293 295 296 296 295 292 289 285 281 276 273 269 265 262 261 262 262 260 258 259 258 257 260 260 258 258 258 257 253 248 242 233 226 223 221 218 215 212 209 206 203 202 200 198 197 197 194 192 192 191
347 348 347 344 342 342 343 345 346 347 347 347 348 348 345 341 339 340 338 333 325 315 310 305 301 300 297 298 298 294 292 288 285 282 282 286 289 293 295 295 295 293 290 287 283 278 274 270 266 262 261 262 261 258 258 259 258 257 257 256 257 257 256 253 249 244 239 233 227 224 220 216 213 209 206 204 203 201 199 197 196 194 194 193 191
337 337 338 337 336 338 340 342 343 343 345 346 348 347 342 337 337 335 329 325 319 312 310 305 299 299 297 296 295 293 292 289 285 281 279 279 281 284 287 290 294 294 292 290 286 283 279 274 270 266 262 261 262 260 257 258 258 256 255 255 256 255 254 252 252 247 240 233 226 222 219 215 212 208 206 205 203 202 199 196 195 194 194 193 191
326 326 329 330 332 334 335 337 338 340 344 345 346 345 339 336 337 330 324 319 314 311 308 303 299 298 296 295 294 292 291 288 285 283 279 278 278 277 278 283 288 290 292 291 289 286 283 279 275 272 267 263 262 262 260 257 257 257 254 254 253 253 254 252 252 250 241 234 226 221 218 216 212 209 207 207 204 202 198 196 195 194 194 193 191
317 319 322 325 328 328 329 330 332 339 342 342 344 344 337 336 335 325 321 316 310 310 308 304 300 297 294 292 291 290 289 286 285 282 280 279 277 276 277 278 279 282 286 287 288 286 283 282 280 277 273 268 264 263 262 258 257 257 255 253 250 251 253 250 249 251 246 239 230 223 220 217 214 211 209 207 205 202 199 197 195 195 195 193 192
310 314 318 321 322 321 321 323 329 335 337 339 341 338 332 333 329 316 311 309 305 304 302 301 299 296 295 291 286 285 284 283 282 280 279 278 275 274 276 277 277 277 278 279 282 285 284 283 281 278 274 271 267 263 262 260 256 256 256 254 251 249 249 249 247 249 249 243 234 226 220 217 216 213 210 207 204 202 200 199 197 196 195 193 192
308 312 315 314 315 315 316 319 325 329 330 333 334 329 329 325 315 306 301 299 299 298 298 299 296 294 293 290 286 281 277 277 278 278 277 275 273 273 272 274 279 281 280 278 278 281 283 284 284 281 276 272 269 264 261 260 257 255 255 254 253 250 247 247 248 248 248 245 239 232 223 218 216 213 210 207 204 202 201 201 199 197 196 194 192
310 312 311 309 311 312 314 316 319 321 321 324 325 325 327 318 306 305 301 297 297 298 300 300 296 292 289 286 284 279 274 272 272 272 271 270 270 270 270 271 275 278 281 283 282 279 279 280 281 281 280 276 273 269 264 261 258 256 255 254 253 252 249 245 245 246 247 246 243 235 226 220 217 214 212 208 205 202 202 202 199 198 196 194 192
309 309 309 308 309 309 309 311 312 310 309 314 318 316 317 313 303 299 299 296 296 298 301 302 298 293 288 285 283 278 275 271 268 265 263 265 265 267 268 267 267 268 272 279 284 285 283 281 278 276 277 277 275 272 269 266 261 258 257 255 253 253 251 247 243 242 244 245 244 237 228 223 218 215 213 210 207 204 202 202 199 198 197 195 193
309 309 309 309 308 306 304 304 301 293 290 299 306 305 307 307 296 292 295 296 295 294 299 304 301 295 291 288 285 280 275 269 263 260 260 261 262 263 262 263 265 263 264 268 274 280 283 283 280 275 274 274 274 272 268 267 263 260 258 256 254 252 251 249 244 240 242 243 244 240 232 227 222 218 214 210 207 205 203 201 199 198 197 195 192
309 309 309 308 305 302 298 293 286 278 278 291 303 308 310 303 294 291 289 291 294 294 302 307 304 304 304 299 291 282 274 268 261 258 259 260 258 260 260 263 265 264 266 268 269 271 274 276 277 276 275 274 274 272 268 265 263 261 258 256 254 251 250 250 246 241 240 241 242 242 236 231 226 219 213 210 208 206 203 201 200 199 197 195 192
306 306 305 302 298 294 289 285 282 279 283 295 304 307 304 296 292 293 287 286 289 292 303 311 310 312 312 306 301 294 280 268 260 253 256 265 265 266 270 272 269 269 272 272 271 271 271 272 271 272 274 274 273 272 270 266 263 260 258 256 253 250 248 249 248 242 239 239 241 242 239 236 229 219 211 209 208 206 204 203 202 199 196 195 193
300 301 300 298 295 290 286 284 282 283 285 291 297 298 296 291 285 287 290 290 288 288 295 305 308 311 308 302 311 315 300 275 265 268 276 283 280 276 276 277 276 278 280 277 276 275 275 275 274 274 274 274 273 272 270 267 263 261 258 256 252 249 246 247 248 243 239 239 239 241 241 239 231 218 211 209 208 206 205 203 202 198 195 193 191
296 298 298 297 296 291 287 282 278 283 287 287 290 293 293 290 283 280 287 293 293 291 287 287 295 304 309 304 306 305 298 313 318 302 291 285 283 279 278 283 286 287 286 283 281 281 281 279 277 277 277 276 275 274 271 267 264 262 260 257 252 247 245 245 247 244 239 238 239 239 239 239 231 219 212 210 208 206 205 203 201 198 194 192 190
294 297 297 297 297 293 288 281 278 283 286 286 288 289 288 286 283 279 277 283 290 292 287 279 273 272 283 295 301 296 296 319 320 306 300 296 291 288 285 286 290 289 287 284 282 282 282 280 277 275 275 275 273 272 271 270 266 263 260 258 253 248 244 244 246 244 241 238 237 237 236 237 233 223 217 212 208 205 204 202 201 199 195 192 191
294 297 297 298 296 295 290 284 283 284 285 288 288 286 284 280 276 274 270 271 278 284 285 280 269 259 256 260 267 274 291 310 315 304 305 301 293 290 287 286 287 287 285 282 280 280 280 279 278 277 275 272 269 267 265 266 266 263 260 257 254 250 246 245 245 244 243 240 237 237 236 236 237 231 223 215 210 206 204 201 200 198 194 191 191
295 298 298 298 296 295 291 287 287 287 288 292 291 287 282 278 274 270 268 267 267 272 279 282 277 265 257 255 258 263 273 284 289 296 304 301 292 289 288 286 285 283 281 278 277 277 276 275 275 276 274 271 268 266 263 260 259 261 261 259 256 255 250 247 245 243 243 241 237 236 237 237 238 238 230 218 210 206 204 202 199 197 194 192 190
296 298 299 298 296 292 286 286 287 289 293 292 289 285 279 276 275 269 266 264 259 264 273 278 276 272 269 264 262 264 265 267 270 277 290 297 296 291 287 287 286 281 279 277 275 273 273 273 272 272 272 271 269 268 265 260 256 256 257 258 258 257 255 251 247 244 240 239 237 235 236 237 237 239 237 223 211 204 202 202 201 198 196 194 190
299 301 301 299 295 289 285 289 291 293 296 290 281 277 272 268 267 264 262 262 258 262 268 270 270 271 273 271 268 268 267 265 266 268 270 279 291 294 292 292 287 282 279 277 275 273 271 270 270 270 269 269 270 269 268 263 257 254 253 254 256 257 257 253 248 245 241 238 236 234 234 237 236 236 237 228 213 206 203 202 202 200 198 196 193
300 302 303 302 297 294 295 297 297 298 297 288 276 272 268 264 263 259 259 261 261 260 262 265 267 267 267 269 269 267 267 266 262 262 265 267 276 285 290 291 286 282 281 278 276 274 271 270 269 269 268 266 267 268 268 266 261 257 254 253 252 254 258 255 248 244 242 240 237 235 234 235 237 235 233 230 218 208 205 203 202 201 200 197 193
301 303 302 301 300 302 304 303 302 301 297 287 274 270 266 264 262 260 259 259 259 260 261 263 264 265 264 262 262 261 261 264 264 265 267 268 272 277 284 288 288 282 279 277 276 275 273 271 268 267 266 266 265 265 266 266 263 262 261 257 253 253 256 258 254 246 242 240 238 237 236 235 237 234 230 229 219 209 206 205 202 200 198 194 191
296 295 293 296 301 305 305 305 303 300 294 285 274 268 267 265 263 261 261 259 258 260 261 261 261 261 262 259 257 257 257 260 263 265 267 269 272 274 278 286 288 282 278 277 274 272 270 269 267 265 265 264 263 263 264 265 265 265 266 264 258 255 256 259 261 255 247 242 238 238 237 235 235 232 226 223 216 208 207 206 202 199 197 195 192
282 283 286 293 299 301 301 302 300 296 290 284 276 269 267 266 264 262 262 262 261 260 260 260 259 258 260 260 257 255 256 258 259 261 264 265 266 269 273 277 280 283 284 280 274 271 268 266 265 264 264 263 262 262 262 265 265 264 265 265 261 258 257 258 261 261 257 250 242 238 237 236 234 230 224 219 213 208 207 206 203 200 197 196 194
283 287 293 298 301 300 301 302 300 296 289 283 276 271 268 267 267 266 264 264 263 261 259 259 259 257 257 258 257 255 255 256 257 258 259 260 261 265 272 274 272 277 283 279 274 271 265 263 264 264 264 263 262 263 263 264 265 264 264 263 260 257 257 258 260 260 259 256 249 240 237 236 235 231 225 220 214 209 206 206 204 199 195 194 192
287 294 300 304 305 305 305 305 301 296 287 280 275 273 271 269 270 268 266 265 263 261 259 259 258 257 255 255 255 256 254 254 255 255 255 255 258 263 266 271 273 271 275 277 274 269 265 264 265 265 266 264 262 263 264 263 265 265 264 262 258 255 254 255 258 260 259 256 253 245 237 234 233 230 226 221 218 210 204 202 201 197 193 192 190
285 294 301 302 303 303 302 301 296 289 283 279 277 275 273 272 271 269 266 265 263 260 260 259 258 256 256 255 255 255 254 254 254 253 253 253 256 260 261 260 265 269 270 272 271 268 266 264 262 264 265 263 261 262 262 263 264 264 263 260 257 254 251 250 253 257 258 254 252 248 238 231 229 227 224 221 219 213 202 197 196 194 192 190 189
285 294 299 298 298 297 295 293 289 286 283 280 277 275 275 273 271 270 268 267 264 261 261 260 258 257 256 255 254 254 255 254 254 252 251 253 257 258 256 254 256 262 268 268 267 268 268 266 265 267 267 264 261 258 259 261 261 261 262 261 259 255 251 248 248 251 255 253 250 247 237 228 224 222 220 219 218 213 203 196 194 193 191 189 188
287 293 295 293 293 293 292 290 288 286 283 281 278 276 275 273 270 270 269 267 265 263 261 260 259 259 257 255 254 254 255 254 253 252 251 254 256 254 253 253 253 254 260 266 265 263 267 269 270 272 273 272 268 263 261 260 260 263 268 270 267 262 255 251 249 249 254 253 247 243 234 223 218 217 216 215 212 210 207 200 194 191 189 187 185
286 287 287 286 288 290 291 291 288 285 283 280 279 276 274 272 271 270 269 267 265 264 263 262 260 260 259 256 254 253 255 255 253 253 254 254 252 251 252 251 251 252 256 264 267 261 264 271 274 272 272 274 273 272 270 265 262 265 270 275 277 271 261 254 251 250 253 254 246 239 233 221 213 212 213 211 207 205 204 199 193 189 185 183 183
286 285 287 288 289 290 290 289 286 283 281 280 278 276 274 273 271 271 271 268 267 267 266 265 263 262 261 258 254 253 255 257 256 256 256 254 252 251 252 253 254 257 260 264 270 267 267 270 274 273 273 274 273 273 274 270 267 268 270 275 278 277 269 260 256 253 253 255 249 239 231 220 211 209 210 209 205 201 197 192 188 186 184 183 182
292 292 294 291 290 289 285 284 284 283 280 280 280 277 274 274 273 273 273 270 269 269 270 269 267 266 264 260 257 256 257 258 259 259 257 257 256 254 253 255 259 261 263 268 275 279 273 270 271 275 277 278 273 269 268 267 265 265 266 270 273 272 270 265 263 259 255 257 253 241 231 219 209 206 207 207 201 195 191 188 185 184 184 184 184
292 295 295 288 285 285 281 282 284 283 280 280 280 277 275 277 277 276 274 272 272 272 272 272 271 269 266 262 262 263 262 260 259 259 259 257 257 256 255 253 255 256 258 266 276 285 282 278 279 281 281 280 276 268 263 261 262 263 263 264 267 266 264 263 263 261 258 261 260 246 234 223 210 203 204 203 196 190 187 186 185 184 184 185 185
290 291 289 284 282 284 283 283 284 282 279 279 278 276 276 278 278 277 275 273 274 274 273 273 273 272 269 268 269 268 266 262 260 260 260 259 257 256 255 252 254 260 264 271 277 279 283 283 279 277 277 277 275 271 267 264 262 261 262 264 265 262 260 262 264 260 256 259 263 255 240 229 218 207 203 201 195 189 186 185 185 185 184 184 184
289 288 288 288 287 287 286 284 282 281 279 277 277 277 276 277 278 278 277 276 275 274 273 274 274 273 271 271 272 270 267 265 263 262 261 260 257 255 256 255 256 262 267 269 272 272 273 274 270 268 269 270 272 272 270 270 267 260 261 268 270 266 264 265 263 259 255 254 259 261 249 235 225 214 205 202 196 190 187 186 186 185 184 184 184
291 292 296 296 291 288 287 284 280 279 278 278 279 278 277 277 277 278 278 277 275 274 273 272 271 271 271 271 271 272 270 267 265 265 263 261 260 257 257 257 254 257 260 260 264 267 265 263 265 267 266 268 271 269 264 263 264 261 260 267 271 269 268 268 264 258 255 253 254 260 258 241 228 218 208 203 198 192 188 187 187 186 184 183 183
297 300 303 303 298 290 287 283 278 277 278 280 280 279 279 278 278 278 277 275 273 270 268 267 265 264 264 265 267 268 268 267 265 265 264 263 263 260 258 257 256 256 258 259 262 264 263 261 263 266 268 269 269 265 255 249 252 259 265 271 271 267 265 265 265 260 254 253 251 255 260 247 230 220 209 202 199 195 189 187 187 186 184 182 182
303 306 307 308 304 296 289 284 279 278 280 281 280 280 281 280 279 279 276 272 269 266 263 262 260 258 255 256 259 259 260 262 262 262 264 263 262 261 260 260 259 256 257 260 262 264 265 266 266 265 267 268 265 259 249 241 241 253 269 278 272 266 262 259 261 261 256 255 254 255 260 248 230 221 211 201 198 195 190 188 187 185 184 182 181
307 309 310 310 307 299 290 283 282 283 282 282 282 283 285 284 282 278 273 269 267 265 264 262 260 258 255 252 253 253 254 258 259 258 259 260 259 259 258 257 258 257 257 260 262 264 266 270 271 269 270 270 266 258 249 242 240 252 278 290 279 272 272 267 265 266 263 262 261 256 253 241 226 220 213 203 198 194 189 187 186 183 181 180 180
311 312 313 312 306 297 288 285 285 285 283 281 282 284 287 288 285 282 280 277 275 274 274 273 271 269 265 260 255 250 248 253 258 258 256 256 256 257 257 255 255 256 257 259 262 265 269 271 271 272 275 275 269 261 252 248 248 284 313 311 298 293 291 282 275 273 270 268 263 253 242 230 218 213 210 202 197 193 188 185 184 181 179 179 179
315 314 313 311 302 291 289 292 292 289 286 283 282 285 289 292 292 291 289 287 284 283 283 283 283 281 278 274 269 261 253 251 256 259 259 259 258 256 256 256 254 253 254 255 258 262 266 272 274 275 279 280 279 279 274 276 302 325 329 328 318 312 304 292 286 282 277 274 263 248 234 224 214 208 204 201 197 192 186 183 182 180 179 179 179
319 317 315 309 299 292 292 296 296 293 291 288 288 292 295 296 296 294 292 291 288 286 284 284 284 283 282 280 277 274 267 258 255 257 258 259 260 259 259 259 257 256 254 254 256 258 259 264 270 273 274 277 282 283 283 289 301 305 320 331 327 323 313 302 303 294 293 293 269 243 226 219 213 206 201 199 196 190 184 181 180 180 179 179 179
319 316 314 304 297 297 296 297 298 296 295 296 297 298 299 300 300 298 294 292 290 286 285 285 284 284 284 282 279 277 274 267 261 259 257 256 256 259 261 261 260 258 257 255 256 257 258 261 263 265 266 269 276 282 285 287 288 290 312 328 318 316 305 299 310 298 301 310 294 263 231 214 209 205 201 198 194 188 183 181 181 179 179 179 179
317 312 310 304 301 303 302 302 301 297 300 305 304 304 305 304 303 301 297 293 290 288 287 287 286 284 283 283 281 278 275 273 269 265 261 258 257 260 261 261 261 260 259 257 257 258 259 261 262 262 264 266 268 275 281 286 290 292 301 313 308 304 294 288 296 293 297 308 304 286 256 214 203 200 199 196 192 188 184 182 181 180 179 179 180
314 310 310 308 309 312 310 308 304 301 305 309 308 307 308 307 306 305 300 294 290 288 288 287 286 284 283 282 281 279 279 277 274 270 266 260 257 259 259 260 260 261 260 260 260 260 260 260 261 261 261 263 263 265 272 280 287 290 294 301 297 295 293 292 291 291 296 304 298 288 279 219 199 195 198 194 189 187 185 183 181 180 179 180 180
311 312 311 310 314 319 319 315 309 307 310 311 307 308 308 307 308 307 300 292 287 285 285 286 284 283 282 281 281 280 279 278 276 274 271 265 259 257 255 255 254 254 255 257 259 260 259 258 260 260 259 260 259 259 264 268 273 278 284 288 287 290 296 296 294 292 296 304 300 291 291 228 199 192 193 190 185 184 185 183 181 179 179 180 180
317 317 314 311 313 317 321 320 313 309 313 312 307 308 308 307 308 306 298 292 288 287 288 288 286 284 281 279 280 279 278 277 275 274 274 272 268 263 257 252 250 248 247 252 258 261 260 259 260 262 263 262 258 255 255 258 264 272 277 278 278 285 292 291 296 296 297 309 311 298 288 239 200 187 184 183 179 179 180 180 180 179 178 179 179
323 320 316 313 315 316 319 321 316 309 310 310 307 306 308 308 308 305 299 294 292 289 289 289 288 286 282 279 279 279 279 278 276 275 275 274 273 271 265 259 256 253 252 256 262 264 263 262 262 263 265 264 260 253 249 250 256 261 263 263 267 277 286 280 293 300 299 309 309 299 291 253 197 177 170 172 171 170 172 174 176 177 177 177 177
322 323 322 315 315 317 317 319 316 304 302 307 307 305 305 307 308 306 301 296 293 291 290 289 288 285 282 280 278 277 277 277 277 276 275 273 271 270 268 267 263 259 257 258 262 265 265 264 264 262 262 264 261 253 246 246 250 252 251 255 261 265 278 275 280 300 299 297 297 296 291 256 198 165 153 158 163 164 166 168 170 172 173 175 177
324 324 322 315 316 319 318 316 311 300 296 302 304 302 304 307 309 308 304 297 292 290 290 291 289 286 285 285 283 278 277 277 277 277 274 272 271 269 271 273 270 266 264 260 257 261 264 264 263 263 263 265 262 253 245 244 247 248 246 251 256 255 258 265 268 287 300 289 290 293 285 251 211 162 149 148 148 158 161 162 164 168 170 172 176